Regional Weather Roundup
Issued by NWS Green Bay, WI

Home | Current Version | Previous Version | Text Only | Print | Product List | Glossary On
Versions: 1 2 3 4 5 6 7 8 9 10 11 12 13 14 15 16 17 18 19 20 21 22 23 24 25 26 27 28 29 30 31 32 33 34 35 36 37 38 39 40 41 42 43 44 45 46 47 48 49 50
000
ASUS43 KGRB 040311
RWRGRB

NORTH-CENTRAL AND NORTHEAST WISCONSIN REGIONAL WEATHER ROUNDUP
NATIONAL WEATHER SERVICE GREEN BAY WI
1000 PM CDT TUE MAY 03 2016

WIZ005-009-010>012-018-019-040400-
NORTH CENTRAL WISCONSIN

CITY           SKY/WX    TMP DP  RH WIND       PRES   REMARKS
IRONWOOD         N/A     46  36  66 NW7       29.75R
MANITOWISH WTR CLOUDY    47  39  72 N6        29.74R
ARBOR VITAE    PTCLDY    42  39  89 CALM      29.73R
EAGLE RIVER    MOCLDY    40  40  99 CALM      29.73R FOG
LAND O LAKES   CLOUDY    46  40  80 N8        29.75R
RHINELANDER    MOCLDY    40  38  93 CALM      29.73R FOG
PHILLIPS       CLEAR     41  40  95 NW5       29.73R
ANTIGO         CLOUDY    42  42  99 CALM      29.71S
TOMAHAWK       FOG       40  39  97 CALM      29.73R VSB 1/2
MERRILL        NOT AVBL
$$

WIZ013-073-040400-
NORTHEAST WISCONSIN

CITY           SKY/WX    TMP DP  RH WIND       PRES   REMARKS
IRON MOUNTAIN  PTCLDY    41  40  96 NW5       29.70R FOG
MARINETTE      CLOUDY    49  45  86 CALM      29.70S
OCONTO         CLOUDY   N/A N/A N/A CALM      29.68S
$$

WIZ017-030-035>037-045-040400-
CENTRAL WISCONSIN

CITY           SKY/WX    TMP DP  RH WIND       PRES   REMARKS
MEDFORD        FOG       40  40 100 NW3       29.72R VSB 1/4
WAUSAU         PTCLDY    47  44  90 NE5       29.70R
MOSINEE        CLEAR     45  45 100 N3        29.71F
MARSHFIELD     CLOUDY    49  45  86 CALM      29.69F
WISC RAPIDS    CLOUDY    48  46  93 CALM      29.70F
STEVENS POINT  PTCLDY    45  44  99 CALM      29.70F
WAUPACA        CLOUDY    50  46  87 CALM      29.70F
SHAWANO        CLOUDY    47  44  89 NW5       29.70S
CLINTONVILLE   CLOUDY    46  45  93 CALM      29.69F
WAUTOMA        CLOUDY    49  47  93 NE3       29.69F
$$

WIZ038-039-048-051-040400-
FOX VALLEY

CITY           SKY/WX    TMP DP  RH WIND       PRES   REMARKS
NWS GREEN BAY  LGT RAIN  50  47  89 CALM      29.68F
APPLETON       LGT RAIN  48  46  93 N8        29.69F
OSHKOSH        HVY RAIN  50  47  89 NW7       29.71F FOG
FOND DU LAC    LGT RAIN  51  47  86 N18G25    29.71R
$$

WIZ022-050-052-040400-
EAST CENTRAL WISCONSIN

CITY           SKY/WX    TMP DP  RH WIND       PRES   REMARKS
EPHRAIM        CLOUDY    47  47  99 CALM      29.67S
STURGEON BAY   CLOUDY    50  45  81 S3        29.71F
MANITOWOC      RAIN      49  47  93 N10       29.71R
SHEBOYGAN      LGT RAIN  52  45  77 N17       29.68S
$$

LMZ563-521-522-541>543-040400-
LAKESHORE

STATION/POSITION TIME  TEMP    WIND        PRES    VSBY  WAVE
                       AIR SEA DIR/SP/G                  HT/PER
                 (UTC) (F)     (DEG/KT/KT) (MB)    (MI)  (FT/S)
SHEBOYGAN LKSHOR 0300   49      50/ 12/ 13 1005.0F
KEWAUNEE LKSHORE 0200   45                 1004.9F
ALGOMA MARINA    0215           CALM  /  3   N/A
NORTHPORT PIER   0200   44      CALM  /  1 1005.1S
N MID LAKE BUOY  0250   42 39  160/  6/  8 1004.6F         2/ 5
CHAMBERS ISLAND  0200   49     230/  3/  7 1005.4R
MENOMINEE LKSHOR 0200   52                 1004.2R
$$




USA.gov is the U.S. government's official web portal to all federal, state and local government web resources and services.